• Processing (Info)

  • MPEC 2014-L39 : 2014 LN17

    The following Minor Planet Electronic Circular may be linked-to from your own Web pages, but must not otherwise be redistributed electronically.

    A form allowing access to any MPEC is at the bottom of this page.


    Read MPEC 2014-L38 Read MPEC 2014-L40


    M.P.E.C. 2014-L39                                Issued 2014 June 7, 16:29 UT
    
         The Minor Planet Electronic Circulars contain information on unusual
             minor planets and routine data on comets.  They are published
       on behalf of Commission 20 of the International Astronomical Union by the
              Minor Planet Center, Smithsonian Astrophysical Observatory,
                              Cambridge, MA 02138, U.S.A.
    
                 Prepared using the Tamkin Foundation Computer Network
    
                                  MPC@CFA.HARVARD.EDU
                URL http://www.minorplanetcenter.net/    ISSN 1523-6714
    
                                       2014 LN17
    
    Observations:
         K14L17N* C2014 06 05.33113 16 27 35.45 -11 32 07.5          19.9 VqEL039G96
         K14L17N  C2014 06 05.33848 16 27 36.20 -11 32 47.1          20.1 VqEL039G96
         K14L17N  C2014 06 05.35064 16 27 37.42 -11 33 51.4          20.0 VqEL039G96
         K14L17N  C2014 06 05.35800 16 27 38.17 -11 34 30.0          19.9 VqEL039G96
         K14L17N  C2014 06 05.39687 16 27 42.46 -11 37 46.2          20.4 VqEL039I52
         K14L17N  C2014 06 05.39769 16 27 42.52 -11 37 50.3          21.8 VqEL039I52
         K14L17N  C2014 06 05.39811 16 27 42.56 -11 37 52.5          21.9 VqEL039I52
         K14L17N  C2014 06 05.40191 16 27 43.02 -11 38 10.7          20.1 VqEL039G96
         K14L17N  C2014 06 05.40258 16 27 43.08 -11 38 14.2          19.8 VqEL039G96
         K14L17N  C2014 06 05.40325 16 27 43.15 -11 38 17.6          19.8 VqEL039G96
         K14L17N  C2014 06 05.40392 16 27 43.25 -11 38 20.7          20.2 VqEL039G96
         K14L17N  C2014 06 06.30785 16 29 57.69 -12 30 22.2          20.6 VqEL039G96
         K14L17N  C2014 06 06.30869 16 29 57.71 -12 30 24.1          21.1 VqEL039G96
         K14L17N  C2014 06 06.30954 16 29 57.74 -12 30 26.0          21.0 VqEL039G96
         K14L17N  C2014 06 06.31038 16 29 57.74 -12 30 27.9          20.4 VqEL039G96
         K14L17N  C2014 06 07.30651 16 31 07.18 -12 59 00.6          21.3 VqEL039G96
         K14L17N  C2014 06 07.30928 16 31 07.17 -12 59 04.2          21.0 VqEL039G96
    
    Observer details:
    G96 Mt. Lemmon Survey.  Observer J. A. Johnson.  Measurers E. J. Christensen,
        A. R. Gibbs, A. D. Grauer, R. E. Hill, J. A. Johnson, R. A. Kowalski,
        S. M. Larson, R. J. Sanders, F. C. Shelly.  1.5-m reflector + CCD.
    I52 Steward Observatory, Mt. Lemmon Station.  Observer A. R. Gibbs.  Measurers
        E. J. Christensen, A. R. Gibbs, A. D. Grauer, R. E. Hill, J. A. Johnson,
        R. A. Kowalski, S. M. Larson, R. J. Sanders, F. C. Shelly.  1.0-m
        reflector + CCD.
    
    Orbital elements:
    2014 LN17                                                Earth MOID = 0.0012 AU
    Epoch 2014 May 23.0 TT = JDT 2456800.5                  MPC
    M   8.46575              (2000.0)            P               Q
    n   0.24931045     Peri.  262.81751     -0.89871535     -0.42311290
    a   2.5002056      Node   252.09580     +0.43474704     -0.82516884
    e   0.7987011      Incl.    6.95743     +0.05749545     -0.37426175
    P   3.95           H   27.0           G   0.15           U   6
    Residuals in seconds of arc
    140605 G96  0.7+  0.1-    140605 I52  0.5-  0.1-    140606 G96  0.2+  0.1+
    140605 G96  0.8+  0.1-    140605 G96  0.2-  0.2+    140606 G96  0.4+  0.1+
    140605 G96  0.3+  0.1+    140605 G96  0.5-  0.0     140606 G96  0.3+  0.2+
    140605 G96  0.1+  0.1-    140605 G96  0.7-  0.1-    140607 G96  0.3-  0.1-
    140605 I52  0.2+  0.1+    140605 G96  0.4-  0.0     140607 G96  0.2-  0.2-
    140605 I52  0.3-  0.0     140606 G96  0.1+  0.1+
    
    Ephemeris:
    2014 LN17                a,e,i = 2.50, 0.80, 7                   q = 0.5033
    Date    TT    R. A. (2000) Decl.     Delta      r     Elong.  Phase     V
    2014 05 08    04 27 20.7 +14 59 09   0.4135  0.6421    21.4   145.0    31.7
    ...
    2014 05 23    04 34 13.6 +14 33 10   0.1679  0.8479    10.5   167.5
    ...
    2014 05 31    04 36 53.2 +15 23 45   0.05088 0.9633     6.6   173.0
    ...
    2014 06 06    16 29 27.5 -12 14 14   0.03537 1.0493   168.0    11.6    20.6
    2014 06 07    16 30 51.7 -12 50 04   0.04975 1.0635   168.1    11.4    21.3
    2014 06 08    16 31 39.6 -13 10 09   0.06415 1.0777   167.8    11.5    21.9
    ...
    2014 06 14    16 33 35.3 -13 54 46   0.1514  1.1619   164.1    13.9    24.0
    ...
    2014 06 22    16 35 17.6 -14 20 33   0.2714  1.2715   157.7    17.6    25.6
    ...
    2014 07 07    16 40 43.1 -15 04 59   0.5127  1.4681   145.5    23.1    27.5
    
    A. U. Tomatic                (C) Copyright 2014 MPC           M.P.E.C. 2014-L39
    

    Read MPEC 2014-L38 Read MPEC 2014-L40


    MPEC number:

    Enter an MPEC number in one of the following forms:

    • 1997-B01 (the full form)
    • J97B01 (the packed version of the full form)
    • B01 (the abbreviated form)